�������l�o���
Date,Time,MP-1(��Sv/h),MP-2(��Sv/h),MP-3(��Sv/h),MP-4(��Sv/h),MP-5(��Sv/h),MP-6(��Sv/h),MP-7(��Sv/h),MP-8(��Sv/h),����,����(m/s),���J
2023/03/11,00:00,0.578,0.846,0.509,1.071,0.747,0.324,0.591,0.558,�k��,3.4,��
2023/03/11,00:10,0.577,0.845,0.508,1.073,0.747,0.326,0.590,0.559,�k��,4.1,��
2023/03/11,00:20,0.577,0.846,0.509,1.072,0.747,0.328,0.589,0.557,�k��,5.0,��
2023/03/11,00:30,0.578,0.845,0.507,1.072,0.745,0.327,0.589,0.559,�k�k��,4.7,��
2023/03/11,00:40,0.577,0.845,0.509,1.070,0.747,0.327,0.591,0.559,�k�k��,5.2,��
2023/03/11,00:50,0.577,0.845,0.508,1.072,0.744,0.327,0.591,0.559,�k�k��,5.2,��
2023/03/11,01:00,0.577,0.845,0.508,1.072,0.747,0.327,0.591,0.558,�k��,5.9,��
2023/03/11,01:10,0.578,0.846,0.509,1.071,0.746,0.327,0.592,0.559,�k��,5.6,��
2023/03/11,01:20,0.576,0.847,0.507,1.072,0.747,0.326,0.590,0.560,�k��,6.2,��
2023/03/11,01:30,0.578,0.844,0.508,1.071,0.746,0.326,0.590,0.560,�k�k��,5.9,��
2023/03/11,01:40,0.577,0.846,0.508,1.069,0.747,0.327,0.590,0.558,�k��,7.3,��
2023/03/11,01:50,0.577,0.846,0.507,1.071,0.745,0.325,0.589,0.560,�k��,7.3,��
2023/03/11,02:00,0.576,0.845,0.509,1.072,0.748,0.327,0.592,0.559,���k��,7.1,��
2023/03/11,02:10,0.577,0.846,0.508,1.073,0.747,0.325,0.590,0.558,���k��,8.8,��
2023/03/11,02:20,0.576,0.845,0.508,1.073,0.746,0.326,0.590,0.559,���k��,7.7,��
2023/03/11,02:30,0.577,0.845,0.508,1.072,0.746,0.327,0.590,0.558,���k��,7.2,��
2023/03/11,02:40,0.577,0.846,0.507,1.071,0.745,0.326,0.591,0.559,���k��,6.4,��
2023/03/11,02:50,0.577,0.846,0.506,1.070,0.745,0.326,0.590,0.559,���k��,6.5,��
2023/03/11,03:00,0.577,0.848,0.508,1.071,0.748,0.327,0.592,0.559,���k��,6.3,��
2023/03/11,03:10,0.578,0.843,0.508,1.073,0.745,0.326,0.591,0.559,���k��,7.4,��
2023/03/11,03:20,0.577,0.842,0.507,1.067,0.745,0.327,0.591,0.558,���k��,7.5,��
2023/03/11,03:30,0.578,0.843,0.508,1.071,0.745,0.326,0.590,0.560,���k��,6.8,��
2023/03/11,03:40,0.576,0.846,0.508,1.070,0.748,0.326,0.590,0.558,���k��,6.8,��
2023/03/11,03:50,0.578,0.846,0.508,1.072,0.745,0.327,0.591,0.559,�k�k��,8.3,��
2023/03/11,04:00,0.576,0.843,0.507,1.073,0.745,0.325,0.591,0.558,�k,8.4,��
2023/03/11,04:10,0.578,0.845,0.508,1.072,0.748,0.326,0.590,0.559,�k�k��,8.2,��
2023/03/11,04:20,0.577,0.844,0.508,1.071,0.746,0.326,0.592,0.559,�k,8.5,��
2023/03/11,04:30,0.576,0.845,0.508,1.072,0.745,0.326,0.591,0.560,�k,8.9,��
2023/03/11,04:40,0.577,0.846,0.506,1.071,0.745,0.328,0.590,0.560,�k,9.9,��
2023/03/11,04:50,0.576,0.845,0.507,1.073,0.746,0.327,0.591,0.559,�k�k��,9.3,��
2023/03/11,05:00,0.577,0.845,0.508,1.073,0.746,0.327,0.592,0.560,�k�k��,7.0,��
2023/03/11,05:10,0.577,0.846,0.508,1.069,0.746,0.326,0.590,0.559,�k�k��,6.6,��
2023/03/11,05:20,0.576,0.845,0.506,1.071,0.746,0.327,0.590,0.558,�k��,6.0,��
2023/03/11,05:30,0.577,0.845,0.508,1.071,0.745,0.327,0.591,0.559,�k��,3.1,��
2023/03/11,05:40,0.576,0.845,0.505,1.071,0.746,0.327,0.591,0.559,�k��,3.8,��
2023/03/11,05:50,0.577,0.845,0.509,1.071,0.747,0.327,0.591,0.559,�k��,2.6,��
2023/03/11,06:00,0.577,0.845,0.507,1.072,0.745,0.327,0.590,0.559,�k��,4.0,��
2023/03/11,06:10,0.576,0.844,0.507,1.070,0.747,0.325,0.591,0.559,�k��,4.4,��
2023/03/11,06:20,0.577,0.842,0.508,1.073,0.746,0.325,0.591,0.558,���k��,4.0,��
2023/03/11,06:30,0.576,0.845,0.506,1.071,0.746,0.325,0.590,0.558,�k��,4.3,��
2023/03/11,06:40,0.577,0.846,0.507,1.071,0.746,0.325,0.592,0.559,�k��,4.2,��
2023/03/11,06:50,0.577,0.845,0.507,1.070,0.746,0.325,0.589,0.558,�k��,3.5,��
2023/03/11,07:00,0.576,0.846,0.506,1.072,0.746,0.325,0.589,0.559,�k��,2.6,��
2023/03/11,07:10,0.576,0.846,0.508,1.071,0.746,0.327,0.589,0.560,���k��,2.0,��
2023/03/11,07:20,0.576,0.845,0.507,1.071,0.745,0.326,0.589,0.557,�k��,3.3,��
2023/03/11,07:30,0.577,0.844,0.508,1.073,0.747,0.326,0.591,0.557,�k�k��,1.8,��
2023/03/11,07:40,0.577,0.845,0.506,1.073,0.745,0.327,0.591,0.559,�k�k��,4.0,��
2023/03/11,07:50,0.577,0.845,0.507,1.070,0.745,0.325,0.590,0.558,�k�k��,4.0,��
2023/03/11,08:00,0.577,0.847,0.509,1.071,0.744,0.327,0.591,0.558,�k�k��,3.2,��
2023/03/11,08:10,0.578,0.846,0.508,1.071,0.745,0.326,0.589,0.558,�k,3.0,��
2023/03/11,08:20,0.578,0.845,0.507,1.072,0.745,0.326,0.592,0.560,�k�k��,2.6,��
2023/03/11,08:30,0.577,0.846,0.507,1.071,0.745,0.326,0.592,0.558,�k�k��,4.3,��
2023/03/11,08:40,0.578,0.845,0.507,1.069,0.745,0.326,0.589,0.560,�k,2.9,��
2023/03/11,08:50,0.579,0.844,0.507,1.072,0.747,0.326,0.588,0.560,�k�k��,1.4,��
2023/03/11,09:00,0.578,0.844,0.508,1.074,0.747,0.327,0.587,0.560,�k�k��,3.7,��
2023/03/11,09:10,0.577,0.842,0.508,1.074,0.746,0.326,0.588,0.559,�k�k��,3.3,��
2023/03/11,09:20,0.575,0.842,0.507,1.073,0.747,0.327,0.589,0.560,�k,2.9,��
2023/03/11,09:30,0.579,0.845,0.508,1.072,0.746,0.327,0.589,0.560,�k�k��,3.4,��
2023/03/11,09:40,0.579,0.843,0.509,1.073,0.746,0.326,0.589,0.560,�k�k��,3.0,��
2023/03/11,09:50,0.577,0.844,0.508,1.071,0.746,0.327,0.590,0.559,�k�k��,3.0,��
2023/03/11,10:00,0.578,0.843,0.508,1.072,0.747,0.326,0.589,0.559,�k��,4.3,��
2023/03/11,10:10,0.578,0.846,0.508,1.073,0.746,0.327,0.589,0.558,�k��,3.7,��
2023/03/11,10:20,0.577,0.844,0.508,1.074,0.748,0.327,0.587,0.558,�k��,3.4,��
2023/03/11,10:30,0.577,0.844,0.509,1.070,0.749,0.326,0.588,0.557,���k��,3.6,��
2023/03/11,10:40,0.577,0.844,0.507,1.073,0.745,0.326,0.587,0.556,���k��,4.0,��
2023/03/11,10:50,0.578,0.844,0.507,1.073,0.747,0.326,0.590,0.556,���k��,4.3,��
2023/03/11,11:00,0.577,0.843,0.509,1.072,0.746,0.325,0.590,0.557,���k��,4.5,��
2023/03/11,11:10,0.577,0.846,0.508,1.073,0.745,0.326,0.590,0.558,�k��,4.8,��
2023/03/11,11:20,0.579,0.845,0.506,1.074,0.746,0.325,0.589,0.557,�k��,4.4,��
2023/03/11,11:30,0.578,0.846,0.508,1.071,0.746,0.325,0.589,0.556,�k��,4.1,��
2023/03/11,11:40,0.578,0.844,0.507,1.075,0.746,0.326,0.589,0.557,���k��,4.1,��
2023/03/11,11:50,0.578,0.845,0.509,1.073,0.746,0.325,0.588,0.557,�k��,3.2,��
2023/03/11,12:00,0.578,0.845,0.507,1.073,0.746,0.324,0.589,0.556,�k��,3.0,��
2023/03/11,12:10,0.578,0.844,0.507,1.074,0.747,0.327,0.588,0.558,�k�k��,3.9,��
2023/03/11,12:20,0.578,0.845,0.507,1.075,0.746,0.326,0.587,0.559,�k�k��,3.8,��
2023/03/11,12:30,0.577,0.845,0.506,1.071,0.746,0.327,0.589,0.558,�k��,4.4,��
2023/03/11,12:40,0.579,0.845,0.507,1.071,0.747,0.326,0.589,0.558,�k�k��,3.7,��
2023/03/11,12:50,0.578,0.846,0.508,1.074,0.746,0.328,0.589,0.558,�k�k��,3.3,��
2023/03/11,13:00,0.577,0.846,0.507,1.073,0.748,0.326,0.590,0.558,�k,3.4,��
2023/03/11,13:10,0.578,0.847,0.506,1.074,0.746,0.327,0.589,0.557,�k��,2.7,��
2023/03/11,13:20,0.577,0.844,0.506,1.074,0.748,0.326,0.588,0.556,���k��,3.6,��
2023/03/11,13:30,0.579,0.846,0.506,1.073,0.748,0.326,0.590,0.556,�k��,3.9,��
2023/03/11,13:40,0.577,0.845,0.505,1.071,0.747,0.325,0.590,0.558,�k��,3.3,��
2023/03/11,13:50,0.577,0.846,0.507,1.074,0.746,0.327,0.589,0.559,�k��,3.3,��
2023/03/11,14:00,0.577,0.844,0.507,1.071,0.745,0.327,0.590,0.556,�k��,3.8,��
2023/03/11,14:10,0.578,0.847,0.508,1.072,0.746,0.325,0.589,0.558,�k��,3.9,��
2023/03/11,14:20,0.577,0.844,0.506,1.074,0.746,0.327,0.589,0.559,�k�k��,4.3,��
2023/03/11,14:30,0.577,0.845,0.507,1.073,0.749,0.326,0.588,0.556,�k��,4.0,��
2023/03/11,14:40,0.577,0.846,0.507,1.074,0.747,0.325,0.589,0.557,�k��,3.8,��
2023/03/11,14:50,0.577,0.847,0.507,1.072,0.747,0.327,0.590,0.557,�k��,3.7,��
2023/03/11,15:00,0.578,0.846,0.506,1.074,0.745,0.325,0.590,0.557,�k��,4.0,��
2023/03/11,15:10,0.577,0.844,0.508,1.072,0.748,0.326,0.587,0.557,�k��,3.6,��
2023/03/11,15:20,0.578,0.845,0.507,1.072,0.744,0.327,0.589,0.557,�k�k��,2.5,��
2023/03/11,15:30,0.576,0.845,0.507,1.072,0.748,0.328,0.589,0.557,�k,1.2,��
2023/03/11,15:40,0.578,0.849,0.508,1.072,0.744,0.327,0.590,0.557,�k��,1.2,��
2023/03/11,15:50,0.579,0.848,0.507,1.074,0.745,0.326,0.590,0.556,�k��,1.8,��
2023/03/11,16:00,0.578,0.849,0.508,1.073,0.746,0.328,0.590,0.556,�k��,2.3,��
2023/03/11,16:10,0.577,0.848,0.507,1.072,0.747,0.327,0.589,0.557,���k��,2.2,��
2023/03/11,16:20,0.578,0.848,0.508,1.072,0.745,0.328,0.589,0.557,�k�k��,1.8,��
2023/03/11,16:30,0.578,0.848,0.508,1.073,0.747,0.327,0.589,0.559,�k�k��,1.7,��
2023/03/11,16:40,0.578,0.848,0.508,1.074,0.746,0.327,0.589,0.559,�k,1.7,��
2023/03/11,16:50,0.577,0.847,0.507,1.070,0.745,0.329,0.589,0.561,�k�k��,1.7,��
2023/03/11,17:00,0.576,0.851,0.508,1.073,0.747,0.328,0.589,0.559,�k,1.7,��
2023/03/11,17:10,0.578,0.848,0.508,1.071,0.747,0.327,0.590,0.559,�k�k��,1.8,��
2023/03/11,17:20,0.578,0.849,0.508,1.072,0.746,0.327,0.590,0.559,�k�k��,1.4,��
2023/03/11,17:30,0.580,0.848,0.509,1.073,0.748,0.327,0.591,0.559,�k�k��,1.5,��
2023/03/11,17:40,0.582,0.849,0.510,1.073,0.748,0.328,0.590,0.559,�k��,1.5,��
2023/03/11,17:50,0.578,0.849,0.509,1.073,0.748,0.327,0.591,0.561,�k�k��,1.8,��
2023/03/11,18:00,0.579,0.848,0.508,1.074,0.749,0.327,0.591,0.559,�k��,1.5,��
2023/03/11,18:10,0.580,0.846,0.508,1.071,0.749,0.326,0.590,0.559,�k�k��,2.0,��
2023/03/11,18:20,0.578,0.849,0.508,1.072,0.747,0.327,0.591,0.560,�k�k��,2.0,��
2023/03/11,18:30,0.580,0.846,0.508,1.073,0.749,0.326,0.591,0.559,�k�k��,1.7,��
2023/03/11,18:40,0.578,0.846,0.509,1.074,0.749,0.328,0.591,0.558,�k�k��,2.0,��
2023/03/11,18:50,0.580,0.849,0.508,1.071,0.749,0.326,0.591,0.560,�k�k��,2.2,��
2023/03/11,19:00,0.577,0.848,0.509,1.071,0.749,0.326,0.591,0.559,�k�k��,3.3,��
2023/03/11,19:10,0.579,0.846,0.509,1.072,0.748,0.326,0.591,0.559,�k,4.2,��
2023/03/11,19:20,0.578,0.845,0.510,1.072,0.748,0.326,0.590,0.559,�k,3.7,��
2023/03/11,19:30,0.578,0.845,0.509,1.072,0.745,0.326,0.589,0.560,�k�k��,3.8,��
2023/03/11,19:40,0.578,0.846,0.508,1.072,0.748,0.327,0.590,0.559,�k�k��,3.3,��
2023/03/11,19:50,0.577,0.848,0.509,1.072,0.749,0.328,0.590,0.559,�k�k��,3.5,��
2023/03/11,20:00,0.580,0.848,0.508,1.073,0.748,0.326,0.590,0.559,�k��,4.2,��
2023/03/11,20:10,0.579,0.847,0.506,1.070,0.750,0.327,0.589,0.558,�k��,3.9,��
2023/03/11,20:20,0.578,0.846,0.508,1.071,0.747,0.326,0.590,0.559,�k��,3.3,��
2023/03/11,20:30,0.579,0.847,0.509,1.072,0.748,0.327,0.590,0.557,�k��,2.9,��
2023/03/11,20:40,0.578,0.848,0.507,1.071,0.748,0.325,0.589,0.557,�k��,3.4,��
2023/03/11,20:50,0.579,0.846,0.508,1.070,0.748,0.327,0.590,0.559,�k��,3.4,��
2023/03/11,21:00,0.579,0.847,0.507,1.070,0.748,0.327,0.590,0.559,�k��,3.7,��
2023/03/11,21:10,0.578,0.847,0.508,1.071,0.747,0.325,0.589,0.558,�k��,4.0,��
2023/03/11,21:20,0.578,0.846,0.509,1.070,0.747,0.326,0.590,0.558,�k�k��,3.7,��
2023/03/11,21:30,0.578,0.846,0.509,1.072,0.749,0.327,0.590,0.558,�k��,4.5,��
2023/03/11,21:40,0.577,0.846,0.506,1.073,0.745,0.327,0.589,0.556,�k��,4.2,��
2023/03/11,21:50,0.579,0.847,0.509,1.072,0.747,0.327,0.589,0.557,�k��,4.4,��
2023/03/11,22:00,0.576,0.847,0.508,1.072,0.748,0.326,0.590,0.559,�k�k��,3.8,��
2023/03/11,22:10,0.577,0.846,0.508,1.071,0.748,0.326,0.590,0.559,�k�k��,4.2,��
2023/03/11,22:20,0.578,0.848,0.508,1.071,0.748,0.326,0.591,0.559,�k�k��,4.7,��
2023/03/11,22:30,0.577,0.845,0.508,1.072,0.747,0.327,0.590,0.559,�k�k��,5.1,��
2023/03/11,22:40,0.576,0.844,0.509,1.073,0.749,0.326,0.592,0.559,�k�k��,5.0,��
2023/03/11,22:50,0.578,0.847,0.509,1.070,0.746,0.327,0.589,0.559,�k�k��,5.5,��
2023/03/11,23:00,0.579,0.847,0.508,1.072,0.747,0.326,0.590,0.559,�k�k��,5.9,��
2023/03/11,23:10,0.578,0.849,0.508,1.072,0.747,0.327,0.589,0.559,�k�k��,5.8,��
2023/03/11,23:20,0.576,0.846,0.507,1.072,0.746,0.326,0.590,0.559,�k�k��,5.8,��
2023/03/11,23:30,0.578,0.846,0.507,1.071,0.748,0.325,0.590,0.557,�k��,5.3,��
2023/03/11,23:40,0.578,0.845,0.507,1.071,0.748,0.326,0.589,0.559,�k�k��,5.3,��
2023/03/11,23:50,0.576,0.846,0.506,1.072,0.745,0.327,0.589,0.559,�k��,5.7,��
